Weather History for West Palm Beach, FL

Change the Weather History Date:

Sunday, November 30, 2014

  Actual Average Record
Temperature  
Mean Temperature 75 °F 70 °F  
Max Temperature 79 °F 78 °F 89 °F (1918)
Min Temperature 70 °F 63 °F 39 °F (1966)
Degree Days  
Heating Degree Days 0 1  
Month to date heating degree days 17 9  
Since 1 July heating degree days 17 12  
Cooling Degree Days 10 6  
Month to date cooling degree days 204 245  
Year to date cooling degree days 4140 3866  
Growing Degree Days 24 (Base 50)    
Moisture  
Dew Point 56 °F    
Average Humidity 52    
Maximum Humidity 61    
Minimum Humidity 42    
Precipitation  
Precipitation 0.00 in 0.14 in 2.95 in (1897)
Month to date precipitation 1.94 4.75  
Year to date precipitation 59.53 58.95  
Snow  
Snow 0.00 in - - ()
Month to date snowfall 0.0  
Since 1 July snowfall 0.0  
Since 1 September snowfall 0.0  
Snow Depth 0.00 in    
Sea Level Pressure  
Sea Level Pressure 30.24 in    
Wind  
Wind Speed 15 mph (East)    
Max Wind Speed 23 mph    
Max Gust Speed 29 mph    
Visibility 10 miles    
Events      
T = Trace of Precipitation, MM = Missing Value Source: NWS Daily Summary

Daily Weather History Graph

Daily Weather History Graph

Search for Another Location

Airport:

Trip Planner

Search our weather history database for the weather conditions in past years. The results will help you decide how hot, cold, wet, or windy it might be!

Date:

Astronomy

Nov. 30, 2014 Rise Set
Actual Time 6:51 AM EST 5:27 PM EST
Civil Twilight 6:25 AM EST 5:52 PM EST
Nautical Twilight 5:57 AM EST 6:20 PM EST
Astronomical Twilight 5:29 AM EST 6:48 PM EST
Moon 1:25 PM EST (11/30) 12:54 AM EST (11/30)
Length of Visible Light 11h 26m
Length of Day
10h 36m
Waxing Gibbous, 64% of the Moon is Illuminated
Nov 30
Waxing Gibbous
Dec 6
Full
Dec 14
Last Quarter
Dec 21
New
Dec 28
First Quarter

Hourly Weather History & Observations

Time (EST) Temp. Dew Point Humidity Pressure Visibility Wind Dir Wind Speed Gust Speed Precip Events Conditions
12:53 AM 71.1 °F 55.9 °F 59% 30.22 in 10.0 mi East 10.4 mph - N/A   Scattered Clouds
1:53 AM 71.1 °F 55.0 °F 57% 30.22 in 10.0 mi East 12.7 mph 21.9 mph N/A   Scattered Clouds
2:53 AM 71.1 °F 55.9 °F 59% 30.21 in 10.0 mi East 12.7 mph - N/A   Partly Cloudy
3:53 AM 70.0 °F 52.0 °F 53% 30.21 in 10.0 mi East 11.5 mph - N/A   Partly Cloudy
4:53 AM 71.1 °F 53.1 °F 53% 30.22 in 10.0 mi East 12.7 mph - N/A   Partly Cloudy
5:53 AM 71.1 °F 54.0 °F 55% 30.23 in 10.0 mi East 13.8 mph - N/A   Partly Cloudy
6:53 AM 71.1 °F 53.1 °F 53% 30.25 in 10.0 mi East 13.8 mph - N/A   Partly Cloudy
7:53 AM 73.0 °F 57.0 °F 57% 30.27 in 10.0 mi East 12.7 mph - N/A   Scattered Clouds
8:53 AM 75.0 °F 55.9 °F 51% 30.29 in 10.0 mi East 15.0 mph - N/A   Scattered Clouds
9:53 AM 75.9 °F 55.0 °F 48% 30.30 in 10.0 mi East 15.0 mph - N/A   Scattered Clouds
10:53 AM 77.0 °F 55.0 °F 47% 30.29 in 10.0 mi East 20.7 mph 29.9 mph N/A   Scattered Clouds
11:53 AM 78.1 °F 54.0 °F 43% 30.27 in 10.0 mi East 17.3 mph - N/A   Scattered Clouds
12:53 PM 77.0 °F 57.0 °F 50% 30.25 in 10.0 mi ENE 19.6 mph 26.5 mph N/A   Scattered Clouds
1:53 PM 77.0 °F 57.0 °F 50% 30.22 in 10.0 mi East 15.0 mph - N/A   Scattered Clouds
2:53 PM 77.0 °F 59.0 °F 54% 30.22 in 10.0 mi ENE 15.0 mph 24.2 mph N/A   Scattered Clouds
3:53 PM 77.0 °F 57.9 °F 52% 30.22 in 10.0 mi East 15.0 mph - N/A   Scattered Clouds
4:53 PM 75.0 °F 57.9 °F 55% 30.22 in 10.0 mi ENE 17.3 mph 24.2 mph N/A   Mostly Cloudy
5:53 PM 73.9 °F 57.0 °F 55% 30.23 in 10.0 mi ENE 13.8 mph 23.0 mph N/A   Scattered Clouds
6:53 PM 73.9 °F 57.9 °F 57% 30.23 in 10.0 mi ENE 13.8 mph 23.0 mph N/A   Mostly Cloudy
7:53 PM 73.9 °F 57.9 °F 57% 30.24 in 10.0 mi East 12.7 mph 21.9 mph N/A   Scattered Clouds
8:53 PM 73.9 °F 57.9 °F 57% 30.25 in 10.0 mi East 17.3 mph - N/A   Mostly Cloudy
9:53 PM 73.9 °F 59.0 °F 59% 30.25 in 10.0 mi ENE 12.7 mph - N/A   Mostly Cloudy
10:53 PM 75.0 °F 61.0 °F 62% 30.25 in 10.0 mi East 15.0 mph - N/A   Mostly Cloudy
11:53 PM 75.0 °F 59.0 °F 57% 30.24 in 10.0 mi East 17.3 mph 23.0 mph N/A   Mostly Cloudy